| time (UTC) | temp C | wind direction | speed KPH | gust KPH | rain 1hr cm | rain 24hr cm | rain mn cm | humidity % | barometer mb |
| 20260503173341 | 18 | 360 | 1.6 | 6.4 | 0.00 | 0.00 | 0.00 | 74 | 1017.9 |
| 20260503172349 | 18 | 360 | 3.2 | 6.4 | 0.00 | 0.00 | 0.00 | 73 | 1017.9 |
| 20260503171337 | 18 | 360 | 3.2 | 4.8 | 0.00 | 0.00 | 0.00 | 73 | 1018.0 |
| 20260503170337 | 18 | 360 | 3.2 | 8.0 | 0.00 | 0.00 | 0.00 | 73 | 1018.0 |
| 20260503150330 | 18 | 360 | 6.4 | 9.7 | 0.00 | 0.00 | 0.00 | 65 | 1018.5 |
| 20260503131336 | 19 | 360 | 4.8 | 12.9 | 0.00 | 0.00 | 0.00 | 63 | 1019.6 |
| 20260503130328 | 19 | 360 | 6.4 | 14.5 | 0.00 | 0.00 | 0.00 | 63 | 1019.7 |
| 20260503110334 | 18 | 360 | 6.4 | 12.9 | 0.00 | 0.00 | 0.00 | 70 | 1020.4 |
| 20260503090324 | 17 | 360 | 4.8 | 9.7 | 0.00 | 0.00 | 0.00 | 75 | 1020.6 |
| 20260503081341 | 17 | 360 | 3.2 | 6.4 | 0.00 | 0.00 | 0.00 | 70 | 1020.4 |
| 20260503080332 | 17 | 360 | 4.8 | 8.0 | 0.00 | 0.00 | 0.00 | 69 | 1020.4 |
| 20260503072325 | 17 | 360 | 6.4 | 8.0 | 0.00 | 0.00 | 0.00 | 67 | 1020.3 |
| 20260503071343 | 17 | 360 | 4.8 | 8.0 | 0.00 | 0.00 | 0.00 | 64 | 1020.2 |
| 20260503070326 | 17 | 360 | 1.6 | 6.4 | 0.00 | 0.00 | 0.00 | 63 | 1020.2 |
| 20260503054338 | 15 | 360 | 1.6 | 6.4 | 0.00 | 0.00 | 0.00 | 65 | 1020.1 |
| 20260503053328 | 15 | 360 | 1.6 | 6.4 | 0.00 | 0.00 | 0.00 | 64 | 1020.1 |
| 20260503052353 | 14 | 360 | 4.8 | 6.4 | 0.00 | 0.00 | 0.00 | 64 | 1020.0 |
| 20260503051329 | 14 | 360 | 4.8 | 8.0 | 0.00 | 0.00 | 0.00 | 65 | 1019.9 |
| 20260503050329 | 14 | 360 | 4.8 | 8.0 | 0.00 | 0.00 | 0.00 | 64 | 1019.9 |
| 20260503045323 | 14 | 360 | 4.8 | 8.0 | 0.00 | 0.00 | 0.00 | 64 | 1019.9 |
| 20260503044331 | 14 | 360 | 6.4 | 12.9 | 0.00 | 0.00 | 0.00 | 64 | 1019.9 |
| 20260503043337 | 14 | 360 | 4.8 | 8.0 | 0.00 | 0.00 | 0.00 | 62 | 1019.9 |
| 20260503042330 | 14 | 360 | 3.2 | 9.7 | 0.00 | 0.00 | 0.00 | 61 | 1019.8 |
| 20260503041336 | 14 | 360 | 4.8 | 8.0 | 0.00 | 0.00 | 0.00 | 61 | 1019.7 |
| 20260503040347 | 15 | 360 | 4.8 | 9.7 | 0.00 | 0.00 | 0.00 | 60 | 1019.8 |
| 20260503035338 | 15 | 360 | 4.8 | 6.4 | 0.00 | 0.00 | 0.00 | 60 | 1019.8 |
| 20260503034334 | 14 | 360 | 4.8 | 8.0 | 0.00 | 0.00 | 0.00 | 61 | 1019.8 |
| 20260503033350 | 14 | 360 | 6.4 | 9.7 | 0.00 | 0.00 | 0.00 | 61 | 1019.9 |
| 20260503032335 | 14 | 360 | 4.8 | 6.4 | 0.00 | 0.00 | 0.00 | 60 | 1019.9 |
| 20260503031349 | 14 | 360 | 3.2 | 6.4 | 0.00 | 0.00 | 0.00 | 59 | 1019.9 |
| 20260503030332 | 14 | 360 | 3.2 | 6.4 | 0.00 | 0.00 | 0.00 | 59 | 1019.9 |
| 20260503025348 | 14 | 360 | 3.2 | 9.7 | 0.00 | 0.00 | 0.00 | 60 | 1020.0 |
| 20260503024333 | 15 | 360 | 3.2 | 6.4 | 0.00 | 0.00 | 0.00 | 59 | 1020.0 |
| 20260503023349 | 15 | 360 | 3.2 | 6.4 | 0.00 | 0.00 | 0.00 | 59 | 1020.0 |
| 20260503022333 | 15 | 360 | 3.2 | 6.4 | 0.00 | 0.00 | 0.00 | 59 | 1020.0 |
| 20260503021347 | 15 | 360 | 4.8 | 6.4 | 0.00 | 0.00 | 0.00 | 59 | 1020.1 |
| 20260503020348 | 15 | 360 | 6.4 | 8.0 | 0.00 | 0.00 | 0.00 | 59 | 1020.1 |
| 20260503015335 | 15 | 360 | 6.4 | 9.7 | 0.00 | 0.00 | 0.00 | 60 | 1020.1 |
| 20260503014347 | 15 | 360 | 8.0 | 12.9 | 0.00 | 0.00 | 0.00 | 60 | 1020.2 |
| 20260503013334 | 14 | 360 | 3.2 | 6.4 | 0.00 | 0.00 | 0.00 | 61 | 1020.2 |
| 20260503012345 | 14 | 360 | 4.8 | 8.0 | 0.00 | 0.00 | 0.00 | 62 | 1020.1 |
| 20260503011331 | 15 | 360 | 4.8 | 8.0 | 0.00 | 0.00 | 0.00 | 59 | 1020.2 |
| 20260503010344 | 15 | 360 | 4.8 | 9.7 | 0.00 | 0.00 | 0.00 | 59 | 1020.3 |
| 20260503005331 | 15 | 360 | 3.2 | 6.4 | 0.00 | 0.00 | 0.00 | 58 | 1020.4 |
| 20260503004341 | 15 | 360 | 3.2 | 12.9 | 0.00 | 0.00 | 0.00 | 58 | 1020.4 |
| 20260503003329 | 15 | 360 | 4.8 | 8.0 | 0.00 | 0.00 | 0.00 | 58 | 1020.5 |
| 20260503002341 | 15 | 360 | 3.2 | 4.8 | 0.00 | 0.00 | 0.00 | 58 | 1020.5 |
| 20260503001329 | 15 | 360 | 1.6 | 4.8 | 0.00 | 0.00 | 0.00 | 58 | 1020.6 |
| 20260503000342 | 15 | 360 | 1.6 | 6.4 | 0.00 | 0.00 | 0.00 | 58 | 1020.7 |
| 20260502235326 | 15 | 360 | 4.8 | 6.4 | 0.00 | 0.00 | 0.00 | 58 | 1020.7 |
| 20260502234335 | 15 | 360 | 6.4 | 9.7 | 0.00 | 0.00 | 0.00 | 57 | 1020.8 |
| 20260502233325 | 15 | 360 | 3.2 | 4.8 | 0.00 | 0.00 | 0.00 | 57 | 1020.9 |
| 20260502232336 | 15 | 360 | 3.2 | 4.8 | 0.00 | 0.00 | 0.00 | 57 | 1021.0 |
| 20260502231323 | 15 | 360 | 3.2 | 8.0 | 0.00 | 0.00 | 0.00 | 57 | 1021.0 |
| 20260502230336 | 15 | 360 | 3.2 | 6.4 | 0.00 | 0.00 | 0.00 | 57 | 1021.0 |
| 20260502225322 | 15 | 360 | 3.2 | 6.4 | 0.00 | 0.00 | 0.00 | 57 | 1021.0 |
| 20260502224339 | 15 | 360 | 4.8 | 8.0 | 0.00 | 0.00 | 0.00 | 57 | 1021.1 |
| 20260502223325 | 15 | 360 | 1.6 | 4.8 | 0.00 | 0.00 | 0.00 | 57 | 1021.0 |
| 20260502222342 | 15 | 360 | 4.8 | 6.4 | 0.00 | 0.00 | 0.00 | 57 | 1021.1 |
| 20260502221329 | 15 | 360 | 3.2 | 8.0 | 0.00 | 0.00 | 0.00 | 58 | 1021.2 |
| 20260502220344 | 16 | 360 | 4.8 | 6.4 | 0.00 | 0.00 | 0.00 | 57 | 1021.3 |
| 20260502215329 | 16 | 360 | 3.2 | 6.4 | 0.00 | 0.00 | 0.00 | 57 | 1021.3 |
| 20260502214348 | 16 | 360 | 3.2 | 4.8 | 0.00 | 0.00 | 0.00 | 57 | 1021.2 |
| 20260502213333 | 16 | 360 | 3.2 | 4.8 | 0.00 | 0.00 | 0.00 | 57 | 1021.1 |
| 20260502212323 | 16 | 360 | 1.6 | 6.4 | 0.00 | 0.00 | 0.00 | 56 | 1021.1 |
| 20260502211339 | 16 | 360 | 3.2 | 6.4 | 0.00 | 0.00 | 0.00 | 56 | 1021.3 |
| 20260502210329 | 16 | 360 | 0.0 | 3.2 | 0.00 | 0.00 | 0.00 | 55 | 1021.3 |
| 20260502205335 | 16 | 360 | 1.6 | 4.8 | 0.00 | 0.00 | 0.00 | 55 | 1021.3 |
| 20260502204333 | 16 | 360 | 1.6 | 3.2 | 0.00 | 0.00 | 0.00 | 55 | 1021.4 |
| 20260502203335 | 16 | 360 | 3.2 | 6.4 | 0.00 | 0.00 | 0.00 | 55 | 1021.5 |
| 20260502202330 | 16 | 360 | 3.2 | 4.8 | 0.00 | 0.00 | 0.00 | 54 | 1021.5 |
| 20260502201333 | 16 | 360 | 1.6 | 4.8 | 0.00 | 0.00 | 0.00 | 55 | 1021.6 |
| 20260502200337 | 16 | 360 | 1.6 | 6.4 | 0.00 | 0.00 | 0.00 | 55 | 1021.4 |
| 20260502195323 | 16 | 360 | 6.4 | 9.7 | 0.00 | 0.00 | 0.00 | 54 | 1021.4 |
| 20260502194340 | 17 | 360 | 4.8 | 8.0 | 0.00 | 0.00 | 0.00 | 53 | 1021.3 |
| 20260502193344 | 17 | 360 | 4.8 | 8.0 | 0.00 | 0.00 | 0.00 | 54 | 1021.2 |
| 20260502192334 | 17 | 360 | 4.8 | 9.7 | 0.00 | 0.00 | 0.00 | 55 | 1021.1 |
| 20260502191337 | 17 | 360 | 4.8 | 6.4 | 0.00 | 0.00 | 0.00 | 56 | 1021.1 |
| 20260502190326 | 17 | 360 | 6.4 | 9.7 | 0.00 | 0.00 | 0.00 | 57 | 1020.9 |
| 20260502185341 | 17 | 360 | 6.4 | 9.7 | 0.00 | 0.00 | 0.00 | 57 | 1020.8 |
| 20260502184330 | 18 | 360 | 8.0 | 12.9 | 0.00 | 0.00 | 0.00 | 59 | 1020.9 |
| 20260502183342 | 18 | 360 | 8.0 | 12.9 | 0.00 | 0.00 | 0.00 | 60 | 1020.8 |
| 20260502182331 | 18 | 360 | 3.2 | 8.0 | 0.00 | 0.00 | 0.00 | 61 | 1020.7 |